Change the Weather History Date:

Tuesday, October 11, 2011

  Actual Average Record
Temperature  
Mean Temperature 66 °F 53 °F  
Max Temperature 76 °F 61 °F 86 °F (1928)
Min Temperature 56 °F 45 °F 25 °F (1964)
Degree Days  
Heating Degree Days 0 12  
Month to date heating degree days 54 117  
Since 1 July heating degree days 210 269  
Cooling Degree Days 1 0  
Month to date cooling degree days 7 3  
Year to date cooling degree days 793 637  
Growing Degree Days 16 (Base 50)    
Moisture  
Dew Point 55 °F    
Average Humidity 71    
Maximum Humidity 87    
Minimum Humidity 54    
Precipitation  
Precipitation 0.00 in 0.09 in 1.01 in (1912)
Month to date precipitation 0.00 0.97  
Year to date precipitation 26.20 28.33  
Snow  
Snow 0.00 in 0.10 in 0.10 in (1909)
Month to date snowfall 0.0 0.1  
Since 1 July snowfall 0.0 0.1  
Since 1 September snowfall 0.0 0.1  
Snow Depth 0.00 in    
Sea Level Pressure  
Sea Level Pressure 29.98 in    
Wind  
Wind Speed 5 mph (SSE)    
Max Wind Speed 16 mph    
Max Gust Speed 21 mph    
Visibility 10 miles    
Events      
T = Trace of Precipitation, MM = Missing Value Source: NWS Daily Summary

Daily Weather History Graph

Daily Weather History Graph

Search for Another Location

Airport or City:

Trip Planner

Search our weather history database for the weather conditions in past years. The results will help you decide how hot, cold, wet, or windy it might be!

Date:

Astronomy

Oct. 11, 2011 Rise Set
Actual Time 7:00 AM CDT 6:16 PM CDT
Civil Twilight 6:31 AM CDT 6:44 PM CDT
Nautical Twilight 5:58 AM CDT 7:17 PM CDT
Astronomical Twilight 5:25 AM CDT 7:50 PM CDT
Moon 5:46 PM CDT (10/11) 6:38 AM CDT (10/11)
Length of Visible Light 12h 12m
Length of Day
11h 15m
Full, 100% of the Moon is Illuminated
Oct 11
Full
Oct 11
Full
Oct 19
Last Quarter
Oct 26
New
Nov 2
First Quarter

Hourly Weather History & Observations

Time (CDT) Temp. Dew Point Humidity Pressure Visibility Wind Dir Wind Speed Gust Speed Precip Events Conditions
12:52 AM 61.0 °F 53.1 °F 75% 30.04 in 10.0 mi SSE 5.8 mph - N/A   Mostly Cloudy
1:52 AM 60.1 °F 54.0 °F 80% 30.04 in 10.0 mi SSE 3.5 mph - N/A   Mostly Cloudy
2:52 AM 60.1 °F 54.0 °F 80% 30.02 in 10.0 mi Calm Calm - N/A   Mostly Cloudy
3:52 AM 57.0 °F 54.0 °F 89% 30.03 in 9.0 mi SSE 3.5 mph - N/A   Clear
4:52 AM 57.9 °F 54.0 °F 87% 30.03 in 8.0 mi SE 3.5 mph - N/A   Partly Cloudy
5:52 AM 59.0 °F 54.0 °F 83% 30.03 in 7.0 mi Calm Calm - N/A   Scattered Clouds
6:52 AM 59.0 °F 55.0 °F 87% 30.04 in 8.0 mi Calm Calm - N/A   Scattered Clouds
7:52 AM 61.0 °F 55.9 °F 83% 30.04 in 6.0 mi Calm Calm - N/A   Haze
8:52 AM 64.4 °F 55.4 °F 73% 30.03 in 10.0 mi SE 4.6 mph - N/A   Mostly Cloudy
9:52 AM 69.1 °F 55.9 °F 63% 30.02 in 10.0 mi SSW 4.6 mph - N/A   Mostly Cloudy
10:52 AM 71.1 °F 57.9 °F 63% 30.01 in 10.0 mi SE 4.6 mph - N/A   Scattered Clouds
11:52 AM 75.0 °F 59.0 °F 57% 29.99 in 10.0 mi SE 8.1 mph - N/A   Scattered Clouds
12:52 PM 75.9 °F 57.9 °F 54% 29.97 in 10.0 mi SE 13.8 mph - N/A   Mostly Cloudy
1:52 PM 73.9 °F 57.0 °F 55% 29.96 in 10.0 mi SE 12.7 mph - N/A   Mostly Cloudy
2:52 PM 73.4 °F 57.2 °F 57% 29.95 in 10.0 mi SE 15.0 mph - N/A   Mostly Cloudy
3:52 PM 71.1 °F 55.9 °F 59% 29.94 in 10.0 mi SE 13.8 mph - N/A   Mostly Cloudy
4:52 PM 69.8 °F 55.4 °F 60% 29.93 in 10.0 mi SE 12.7 mph - N/A   Mostly Cloudy
5:52 PM 66.9 °F 55.0 °F 66% 29.93 in 10.0 mi SE 9.2 mph - N/A   Mostly Cloudy
6:52 PM 64.0 °F 54.0 °F 70% 29.93 in 10.0 mi SE 5.8 mph - N/A   Mostly Cloudy
7:52 PM 66.0 °F 53.1 °F 63% 29.92 in 10.0 mi South 3.5 mph - N/A   Mostly Cloudy
8:52 PM 64.9 °F 53.1 °F 65% 29.93 in 10.0 mi South 3.5 mph - N/A   Overcast
9:52 PM 64.9 °F 54.0 °F 68% 29.93 in 10.0 mi SSE 4.6 mph - N/A   Overcast
10:52 PM 64.9 °F 53.1 °F 65% 29.93 in 10.0 mi Calm Calm - N/A   Overcast
11:52 PM 64.0 °F 53.1 °F 67% 29.91 in 10.0 mi Calm Calm - N/A   Mostly Cloudy